Regional Weather Roundup
Issued by NWS Cleveland, OH

Home | Current Version | Previous Version | Text Only | Print | Product List | Glossary Off
Versions: 1 2 3 4 5 6 7 8 9 10 11 12 13 14 15 16 17 18 19 20 21 22 23 24 25 26 27 28 29 30 31 32 33 34 35 36 37 38 39 40 41 42 43 44 45 46 47 48 49 50

000
ASUS41 KCLE 232200
RWRCLE
OHIO REGIONAL WEATHER ROUNDUP
NATIONAL WEATHER SERVICE WILMINGTON, OH
600 PM EDT SAT SEP 23 2017

NOTE: "FAIR" INDICATES FEW OR NO CLOUDS BELOW 12,000 FEET WITH NO
SIGNIFICANT WEATHER AND/OR OBSTRUCTIONS TO VISIBILITY.

OHZ001>008-015>018-024>027-034-035-043-044-232300-
   NORTHWEST OHIO

CITY           SKY/WX    TMP DP  RH WIND       PRES   REMARKS
DEFIANCE       FAIR      88  61  40 E9        30.09R
FINDLAY        FAIR      89  61  38 E10       30.09S
TOLEDO EXPRESS FAIR      88  64  44 E7        30.09S
TOLEDO EXEC    FAIR      85  62  46 E8        30.11S
LIMA           FAIR      88  60  38 NE6       30.09S
$$

OHZ009>014-019>023-028>033-038-089-232300-
   NORTHEAST OHIO

CITY           SKY/WX    TMP DP  RH WIND       PRES   REMARKS
CLE-HOPKINS    FAIR      88  52  29 N9        30.13S
CLE-LAKEFRONT  FAIR      78  67  68 N6        30.11S
CUY CO. ARPT   SUNNY     86  57  37 NE8       30.13S
LORAIN-ELYRIA  FAIR      85  52  32 NE6       30.12S
ASHTABULA      FAIR      84  58  40 NE6       30.14S
AKRON-CANTON   FAIR      88  57  34 E9        30.12S
WOOSTER        NOT AVBL
MANSFIELD      FAIR      86  59  39 NE8       30.13S
YOUNGSTOWN     FAIR      87  60  40 NE9       30.13S
$$

OHZ042-051>053-060>062-070>072-077>081-232300-
  SOUTHWEST OHIO

CITY           SKY/WX    TMP DP  RH WIND       PRES   REMARKS
CINC-COVINGTON FAIR      88  64  44 E8        30.07S
CINC-LUNKEN    FAIR      90  65  43 NE9       30.06S HX  92
HAMILTON       FAIR      89  66  46 E3        30.07S HX  91
DAYTON         NOT AVBL
WRIGHT-PAT AFB NOT AVBL
DAYTON GENERAL FAIR      88  60  38 NE6       30.07S
WILMINGTON     FAIR      85  62  46 E6        30.08S
$$

OHZ036-037-039>041-045>050-054>059-063>069-073>076-082>088-232300-
  CENTRAL AND SOUTHEAST OHIO

CITY           SKY/WX    TMP DP  RH WIND       PRES   REMARKS
COLUMBUS       FAIR      89  61  38 NE7       30.08R
OSU AIRPORT    FAIR      87  61  41 E10       30.09R
BOLTON FIELD   SUNNY     88  61  40 SE7       30.09S
RICKENBACK AFB NOT AVBL
NEWARK         FAIR      86  60  41 SE5       30.09R
MARION         FAIR      88  56  33 E12       30.10S
LANCASTER      FAIR      84  63  49 E5        30.10S
ZANESVILLE     FAIR      88  55  32 NE8       30.10R
NEW PHILLY     FAIR      89  57  33 CALM      30.11S
$$




USA.gov is the U.S. government's official web portal to all federal, state and local government web resources and services.